EW6473 Weather Reports


time (UTC)temp
C
wind
direction
speed
KPH
gust
KPH
rain 1hr
cm
rain 24hr
cm
rain mn
cm
humidity
%
barometer
mb
20211017160023 22 90 0.0 1.6 0.00 0.00 0.00 15 1016.6
20211017154522 20 90 0.0 3.2 0.00 0.00 0.00 14 1016.6
20211017153021 18 97 0.0 0.0 0.00 0.00 0.00 15 1016.6
20211017151526 16 97 0.0 0.0 0.00 0.00 0.00 17 1016.7
20211017150021 15 97 0.0 0.0 0.00 0.00 0.00 19 1016.5
20211017144526 14 90 0.0 3.2 0.00 0.00 0.00 19 1016.5
20211017143021 15 97 0.0 0.0 0.00 0.00 0.00 18 1016.5
20211017141521 14 90 0.0 4.8 0.00 0.00 0.00 19 1016.5
20211017140026 14 90 0.0 6.4 0.00 0.00 0.00 19 1016.3
20211017134521 14 97 0.0 0.0 0.00 0.00 0.00 20 1016.2
20211017133021 14 97 0.0 0.0 0.00 0.00 0.00 20 1016.3
20211017131521 14 97 0.0 0.0 0.00 0.00 0.00 21 1016.4
20211017130026 13 90 0.0 4.8 0.00 0.00 0.00 21 1016.0
20211017124521 14 97 0.0 0.0 0.00 0.00 0.00 20 1016.0
20211017123023 13 97 0.0 0.0 0.00 0.00 0.00 21 1016.2
20211017121521 12 97 0.0 0.0 0.00 0.00 0.00 21 1016.4
20211017120026 12 90 1.6 6.4 0.00 0.00 0.00 22 1016.1
20211017114521 13 90 1.6 6.4 0.00 0.00 0.00 21 1016.2
20211017113020 14 90 1.6 4.8 0.00 0.00 0.00 20 1016.3
20211017111522 15 90 1.6 4.8 0.00 0.00 0.00 19 1016.3
20211017110020 14 90 0.0 3.2 0.00 0.00 0.00 20 1016.4
20211017104520 14 90 1.6 4.8 0.00 0.00 0.00 21 1016.3
20211017103021 15 90 0.0 4.8 0.00 0.00 0.00 19 1016.4
20211017101522 15 90 1.6 9.7 0.00 0.00 0.00 18 1016.5
20211017100021 16 90 0.0 3.2 0.00 0.00 0.00 18 1016.8
20211017094520 16 100 0.0 0.0 0.00 0.00 0.00 18 1017.0
20211017093020 16 90 0.0 4.8 0.00 0.00 0.00 18 1017.0
20211017091520 16 90 0.0 4.8 0.00 0.00 0.00 18 1017.0
20211017090025 16 90 0.0 4.8 0.00 0.00 0.00 18 1017.2
20211017084520 16 100 0.0 0.0 0.00 0.00 0.00 18 1017.3
20211017083017 16 100 0.0 0.0 0.00 0.00 0.00 18 1017.1
20211017081517 16 90 0.0 4.8 0.00 0.00 0.00 17 1017.1
20211017080020 17 90 1.6 9.7 0.00 0.00 0.00 17 1017.4
20211017074520 17 90 0.0 9.7 0.00 0.00 0.00 17 1017.5
20211017073020 17 90 1.6 8.0 0.00 0.00 0.00 16 1017.6
20211017071521 17 90 1.6 8.0 0.00 0.00 0.00 16 1017.5
20211017070024 17 90 1.6 8.0 0.00 0.00 0.00 16 1017.8
20211017064528 17 158 0.0 9.7 0.00 0.00 0.00 16 1017.8
20211017063021 17 90 1.6 4.8 0.00 0.00 0.00 16 1017.9
20211017061521 17 90 0.0 6.4 0.00 0.00 0.00 17 1017.7
20211017060021 17 90 0.0 4.8 0.00 0.00 0.00 16 1017.8
20211017054521 18 90 1.6 9.7 0.00 0.00 0.00 16 1017.8
20211017053021 18 113 0.0 9.7 0.00 0.00 0.00 16 1017.7
20211017051521 18 90 1.6 9.7 0.00 0.00 0.00 15 1017.6
20211017050021 18 90 1.6 9.7 0.00 0.00 0.00 15 1017.8
20211017044521 18 90 1.6 11.3 0.00 0.00 0.00 16 1017.5
20211017043021 18 135 0.0 4.8 0.00 0.00 0.00 16 1017.4
20211017041521 18 180 0.0 3.2 0.00 0.00 0.00 15 1017.2
20211017040021 18 180 0.0 3.2 0.00 0.00 0.00 15 1017.1
20211017034521 18 180 1.6 4.8 0.00 0.00 0.00 15 1016.6
20211017033021 18 180 0.0 4.8 0.00 0.00 0.00 15 1016.4
20211017031521 18 180 0.0 3.2 0.00 0.00 0.00 15 1015.9
20211017030020 19 203 0.0 8.0 0.00 0.00 0.00 15 1016.4
20211017024520 19 270 1.6 8.0 0.00 0.00 0.00 14 1016.1
20211017023021 20 270 0.0 4.8 0.00 0.00 0.00 14 1015.7
20211017021520 20 270 1.6 8.0 0.00 0.00 0.00 13 1015.6
20211017020020 21 135 0.0 4.8 0.00 0.00 0.00 12 1015.5
20211017014521 22 135 0.0 9.7 0.00 0.00 0.00 11 1015.3
20211017013021 23 243 0.0 0.0 0.00 0.00 0.00 11 1015.2
20211017011520 24 248 0.0 3.2 0.00 0.00 0.00 10 1015.2
20211017010020 25 248 0.0 4.8 0.00 0.00 0.00 9 1014.9
20211017004521 26 248 0.0 9.7 0.00 0.00 0.00 9 1015.0
20211017003021 27 248 0.0 9.7 0.00 0.00 0.00 8 1015.1
20211017001521 28 270 3.2 12.9 0.00 0.00 0.00 7 1015.5
20211017000020 28 225 1.6 16.1 0.00 0.00 0.00 7 1015.3
20211016234521 28 225 0.0 9.7 0.00 0.00 0.00 6 1015.3
20211016233021 29 248 1.6 11.3 0.00 0.00 0.00 6 1015.4
20211016231520 28 338 1.6 12.9 0.00 0.00 0.00 7 1015.3
20211016230022 29 315 0.0 4.8 0.00 0.00 0.00 7 1015.6
20211016224522 28 315 0.0 6.4 0.00 0.00 0.00 9 1015.9
20211016223022 27 338 3.2 12.9 0.00 0.00 0.00 8 1015.8
20211016221522 27 338 1.6 12.9 0.00 0.00 0.00 8 1015.7
20211016220021 28 293 1.6 9.7 0.00 0.00 0.00 8 1015.8
20211016214522 28 248 1.6 9.7 0.00 0.00 0.00 7 1015.7
20211016213022 28 0 1.6 8.0 0.00 0.00 0.00 8 1016.0
20211016211522 27 338 3.2 12.9 0.00 0.00 0.00 8 1016.1
20211016210022 27 338 3.2 12.9 0.00 0.00 0.00 8 1016.4
20211016204522 27 338 1.6 16.1 0.00 0.00 0.00 8 1016.6
20211016203021 27 338 1.6 11.3 0.00 0.00 0.00 8 1017.0
20211016201524 26 338 3.2 12.9 0.00 0.00 0.00 7 1017.1
20211016200022 26 338 3.2 19.3 0.00 0.00 0.00 8 1017.3
20211016194521 26 338 1.6 11.3 0.00 0.00 0.00 7 1017.5
20211016193023 26 293 1.6 9.7 0.00 0.00 0.00 8 1017.8
20211016191522 25 338 1.6 11.3 0.00 0.00 0.00 8 1018.1
20211016190027 25 338 1.6 11.3 0.00 0.00 0.00 8 1018.3
20211016184537 25 338 1.6 9.7 0.00 0.00 0.00 9 1018.5
20211016183021 25 225 1.6 11.3 0.00 0.00 0.00 9 1018.6
20211016181522 25 338 1.6 9.7 0.00 0.00 0.00 10 1018.7
20211016180022 24 270 0.0 8.0 0.00 0.00 0.00 10 1018.7
20211016174522 24 248 0.0 8.0 0.00 0.00 0.00 10 1018.8
20211016173021 23 203 0.0 8.0 0.00 0.00 0.00 11 1018.8
20211016171521 23 180 0.0 4.8 0.00 0.00 0.00 10 1019.0
20211016170022 23 90 0.0 4.8 0.00 0.00 0.00 10 1019.2
20211016164602 23 85 0.0 0.0 0.00 0.00 0.00 11 1019.2
20211016163024 22 85 0.0 0.0 0.00 0.00 0.00 11 1019.3
20211016161522 22 85 0.0 0.0 0.00 0.00 0.00 14 1019.4